TimeCET,TemperatureF,Dew PointF,Humidity,Sea Level PressureIn,VisibilityMPH,Wind Direction,Wind SpeedMPH,Gust SpeedMPH,PrecipitationIn,Events,Conditions,WindDirDegrees,DateUTC
12:20 AM,35.6,35.6,100,30.18,0.6,South,4.6,-,N/A,,Mostly Cloudy,180,2013-02-15 23:20:00
12:50 AM,35.6,35.6,100,30.18,0.9,SSW,4.6,-,N/A,,Mostly Cloudy,200,2013-02-15 23:50:00
1:00 AM,36,35,94,30.23,1,SSW,4.5,,,Fog,Light Fog,200,2013-02-16 00:00:00
1:20 AM,35.6,35.6,100,30.18,0.7,South,4.6,-,N/A,,Mostly Cloudy,170,2013-02-16 00:20:00
1:50 AM,35.6,33.8,93,30.18,0.9,South,5.8,-,N/A,,Mostly Cloudy,180,2013-02-16 00:50:00
2:20 AM,35.6,33.8,93,30.18,1.2,South,4.6,-,N/A,,Mostly Cloudy,170,2013-02-16 01:20:00
2:50 AM,35.6,33.8,93,30.18,1.3,South,5.8,-,N/A,,Mostly Cloudy,180,2013-02-16 01:50:00
3:20 AM,35.6,33.8,93,30.18,1.3,SSW,8.1,-,N/A,,Mostly Cloudy,210,2013-02-16 02:20:00
3:50 AM,35.6,33.8,93,30.18,1.6,SSW,5.8,-,N/A,,Scattered Clouds,200,2013-02-16 02:50:00
4:00 AM,36,35,92,30.23,2,SSW,6.7,,,,Mist,200,2013-02-16 03:00:00
4:20 AM,37.4,35.6,93,30.18,1.6,SSW,5.8,-,N/A,,Mostly Cloudy,210,2013-02-16 03:20:00
4:50 AM,35.6,33.8,93,30.18,1.7,SW,5.8,-,N/A,,Mostly Cloudy,230,2013-02-16 03:50:00
5:20 AM,35.6,33.8,93,30.18,1.5,WSW,4.6,-,N/A,Rain,Light Rain,240,2013-02-16 04:20:00
5:50 AM,35.6,35.6,100,30.18,2.2,SW,4.6,-,N/A,Rain,Light Rain,220,2013-02-16 04:50:00
6:20 AM,37.4,35.6,93,30.21,1.7,SSW,5.8,-,N/A,,Mostly Cloudy,210,2013-02-16 05:20:00
6:50 AM,37.4,35.6,93,30.21,-9999.0,SSW,4.6,-,N/A,,Mostly Cloudy,210,2013-02-16 05:50:00
7:00 AM,36,35,95,30.24,2,SSW,4.5,,,Rain,Light Rain,210,2013-02-16 06:00:00
7:20 AM,35.6,35.6,100,30.21,1.4,SSW,4.6,-,N/A,,Mostly Cloudy,200,2013-02-16 06:20:00
7:50 AM,37.4,35.6,93,30.21,1.9,SSW,6.9,-,N/A,,Mostly Cloudy,210,2013-02-16 06:50:00
8:20 AM,35.6,35.6,100,30.21,1.4,SSW,3.5,-,N/A,,Mostly Cloudy,210,2013-02-16 07:20:00
8:50 AM,37.4,35.6,93,30.21,1.2,SSW,4.6,-,N/A,Rain,Light Rain,200,2013-02-16 07:50:00
9:20 AM,37.4,35.6,93,30.21,1.4,SSE,4.6,-,N/A,,Mostly Cloudy,160,2013-02-16 08:20:00
9:50 AM,37.4,35.6,93,30.21,1.9,SSE,4.6,-,N/A,,Mostly Cloudy,160,2013-02-16 08:50:00
10:00 AM,37,35,92,30.27,2,SSE,4.5,,,Rain,Light Rain,160,2013-02-16 09:00:00
10:20 AM,37.4,35.6,93,30.24,1.7,South,3.5,-,N/A,,Scattered Clouds,170,2013-02-16 09:20:00
10:50 AM,37.4,35.6,93,30.24,1.9,SSW,5.8,-,N/A,,Partly Cloudy,200,2013-02-16 09:50:00
11:20 AM,39.2,37.4,93,30.24,2.2,South,4.6,-,N/A,,Scattered Clouds,190,2013-02-16 10:20:00
11:50 AM,39.2,37.4,93,30.24,2.5,South,3.5,-,N/A,,Mostly Cloudy,180,2013-02-16 10:50:00
12:20 PM,39.2,37.4,93,30.24,2.8,SSW,4.6,-,N/A,,Partly Cloudy,200,2013-02-16 11:20:00
12:50 PM,39.2,37.4,93,30.24,-9999.0,SSW,4.6,-,N/A,,Partly Cloudy,210,2013-02-16 11:50:00
1:00 PM,40,37,86,30.27,3,SSW,4.5,,,,Mist,210,2013-02-16 12:00:00
1:20 PM,41.0,37.4,87,30.24,3.1,SW,3.5,-,N/A,,Scattered Clouds,220,2013-02-16 12:20:00
1:50 PM,41.0,37.4,87,30.21,3.7,SW,3.5,-,N/A,,Mostly Cloudy,230,2013-02-16 12:50:00
2:20 PM,41.0,37.4,87,30.21,3.7,WSW,3.5,-,N/A,,Scattered Clouds,240,2013-02-16 13:20:00
2:50 PM,41.0,37.4,87,30.21,4.3,WSW,4.6,-,N/A,,Partly Cloudy,240,2013-02-16 13:50:00
3:20 PM,41.0,37.4,87,30.21,3.7,WSW,4.6,-,N/A,,Partly Cloudy,250,2013-02-16 14:20:00
3:50 PM,41.0,37.4,87,30.21,3.7,Variable,2.3,-,N/A,,Partly Cloudy,0,2013-02-16 14:50:00
4:00 PM,40,38,89,30.26,4,WSW,2.2,,,,Overcast,250,2013-02-16 15:00:00
4:20 PM,41.0,39.2,93,30.21,3.7,SW,3.5,-,N/A,,Partly Cloudy,230,2013-02-16 15:20:00
4:50 PM,41.0,37.4,87,30.21,3.7,SW,4.6,-,N/A,,Partly Cloudy,220,2013-02-16 15:50:00
5:20 PM,39.2,37.4,93,30.21,3.7,Variable,1.2,-,N/A,,Partly Cloudy,0,2013-02-16 16:20:00
5:50 PM,39.2,37.4,93,30.21,3.1,WSW,3.5,-,N/A,,Partly Cloudy,240,2013-02-16 16:50:00
6:20 PM,39.2,37.4,93,30.24,3.1,South,3.5,-,N/A,,Partly Cloudy,180,2013-02-16 17:20:00
6:50 PM,39.2,37.4,93,30.24,-9999.0,South,3.5,-,N/A,,Partly Cloudy,190,2013-02-16 17:50:00
7:00 PM,39,37,90,30.27,3,South,2.2,,,,Mist,190,2013-02-16 18:00:00
7:20 PM,39.2,37.4,93,30.24,-9999.0,Variable,2.3,-,N/A,,Partly Cloudy,0,2013-02-16 18:20:00
7:50 PM,39.2,37.4,93,30.24,-9999.0,SSE,2.3,-,N/A,,Partly Cloudy,160,2013-02-16 18:50:00
8:20 PM,37.4,35.6,93,30.24,-9999.0,South,2.3,-,N/A,,Partly Cloudy,170,2013-02-16 19:20:00
8:50 PM,37.4,35.6,93,30.24,2.5,Variable,2.3,-,N/A,,Partly Cloudy,0,2013-02-16 19:50:00
9:20 PM,37.4,35.6,93,30.24,2.5,Variable,2.3,-,N/A,,Partly Cloudy,0,2013-02-16 20:20:00
9:50 PM,37.4,35.6,93,30.24,2.8,SSW,2.3,-,N/A,,Partly Cloudy,200,2013-02-16 20:50:00
10:00 PM,38,36,89,30.27,3,SSW,2.2,,,,Mist,200,2013-02-16 21:00:00
10:20 PM,37.4,35.6,93,30.24,2.8,WSW,1.2,-,N/A,,Partly Cloudy,240,2013-02-16 21:20:00
10:50 PM,37.4,35.6,93,30.24,-9999.0,SSE,3.5,-,N/A,,Partly Cloudy,150,2013-02-16 21:50:00
11:20 PM,37.4,35.6,93,30.24,1.9,SE,4.6,-,N/A,,Partly Cloudy,140,2013-02-16 22:20:00
11:50 PM,37.4,35.6,93,30.24,1.9,Variable,1.2,-,N/A,,Partly Cloudy,0,2013-02-16 22:50:00